sat.trackr.live / text

‹ back to catalog

GPS BIIF-11 (PRN 10)

NORAD 41019 · 2015-062A

PAYLOAD ACTIVE UNKNOWN

§ Identity

Operator
Country
US
Launch date
2015-10-31
Launch site
AFETR
Launch vehicle
Mass (kg)
RCS (m²)
15.92

Purposes: earth_obs, nav

External: N2YO · Heavens-Above · Gunter

§ Orbital elements

Epoch: 2026-09-09T12:52:21.524736Z

Period
717.96 min
Inclination
57.0140°
Eccentricity
0.0115633
Mean motion
2.00567086 rev/d
Perigee alt
19,874.8 km
Apogee alt
20,489.0 km
Semi-major
26,560.0 km
B*
0.0000e+0
RAAN
27.5687°
Arg perigee
231.0250°
Mean anomaly
127.9406°
Rev number
7,952

§ Raw data

GPS BIIF-11 (PRN 10)1 41019U 15062A   26252.53636024 -.00000082  00000+0  00000+0 0  99942 41019  57.0140  27.5687 0115633 231.0250 127.9406  2.00567086 79527

JSON: /api/v1/satellites/41019 · /tle

For live sub-satellite position, see the globe view (requires WebGL).

§ Visibility from observer

Set your observer location to see the next 7 days of passes ≥ 10°. The values pass through the URL so the page stays shareable.

No JS? Fill the form by hand. The geolocation button needs JavaScript.